Theta_e
315 318 317 315 315 318 329 329 330 331 333 332 332 331 330 331 332 331 334 321 327 334 338 337 335 334 333 330 329 327 327 327 325 324 323 322 320 320 319 317 315 315 314
312 314 315 316 315 313 312 314 327 328 328 330 331 330 329 329 331 331 332 331 325 330 336 336 336 335 333 331 329 327 327 327 325 324 322 322 319 318 318 316 315 313 312
310 310 311 314 316 314 313 311 310 327 326 327 327 329 329 330 331 330 331 333 332 323 329 335 336 334 333 332 330 328 328 327 324 323 322 320 319 318 316 314 313 313 311
308 308 308 309 314 314 313 313 309 308 324 325 325 325 328 329 329 329 329 331 333 333 327 330 332 333 334 332 330 329 328 326 325 323 322 320 318 316 315 314 313 312 310
305 305 306 307 309 312 312 312 310 308 308 321 324 324 324 326 327 327 328 326 329 332 332 327 326 327 331 332 331 330 329 327 324 323 321 320 318 316 315 314 313 311 311
301 302 303 305 307 308 312 312 309 309 308 308 313 322 323 324 325 326 326 325 326 329 330 327 326 326 325 330 331 330 329 328 325 323 321 320 318 316 315 314 313 312 311
298 299 299 301 304 305 307 310 310 308 307 307 305 315 319 321 321 322 324 322 323 326 327 326 326 326 324 327 329 330 330 329 326 323 322 320 318 317 315 314 313 312 311
297 297 297 298 300 301 303 305 308 307 307 308 304 308 305 304 303 318 321 320 321 323 325 324 325 326 326 326 325 328 331 330 327 324 322 320 319 317 316 315 313 312 311
295 296 296 298 298 299 299 301 302 303 303 306 307 305 304 306 305 297 299 309 319 320 322 323 325 324 324 324 324 324 325 327 328 326 324 321 320 318 317 315 314 312 311
293 294 294 295 295 296 297 300 300 302 305 303 306 308 310 308 304 295 293 296 298 310 318 319 322 323 324 324 320 317 318 322 323 323 323 323 320 319 317 316 314 312 311
293 293 293 294 294 296 297 297 299 301 303 305 305 305 306 305 307 303 298 296 293 297 306 314 313 317 321 322 321 318 316 318 319 319 320 320 320 319 317 316 314 313 311
291 292 292 292 293 293 294 296 297 299 302 303 305 306 304 302 303 305 305 306 303 300 299 302 310 309 312 319 316 312 313 316 318 317 317 317 318 318 317 316 314 313 311
288 289 290 291 292 292 293 293 294 296 297 299 303 304 306 306 310 309 309 300 303 295 292 298 302 307 307 305 312 306 308 313 317 316 315 315 316 316 316 314 313 311 309
287 289 290 290 292 292 292 293 292 293 296 297 296 300 304 306 308 307 309 298 290 287 288 292 296 298 303 304 303 298 310 309 314 316 315 314 314 314 313 312 310 308 307
288 289 289 289 290 290 291 291 292 291 295 297 297 297 300 307 309 307 307 308 302 293 292 289 290 293 297 298 300 301 301 304 311 314 314 313 312 311 311 309 308 306 305
287 287 288 288 289 290 290 290 292 291 290 292 297 297 297 304 305 306 305 308 307 305 300 301 289 287 289 288 295 297 299 299 304 310 310 310 309 308 307 306 304 303 302
286 285 286 286 287 288 290 289 291 290 289 289 291 292 297 301 304 305 306 307 308 306 297 287 288 286 286 288 291 288 294 298 304 304 307 307 306 304 303 301 301 299 298
285 285 285 286 286 287 288 289 288 289 289 289 290 292 293 297 301 305 305 306 308 305 292 286 285 285 285 286 286 285 285 287 293 299 303 302 301 300 299 298 297 296 295
284 285 285 285 285 286 286 288 289 289 289 291 291 291 292 296 299 299 305 304 306 293 294 288 285 286 285 286 285 285 285 286 288 296 299 298 297 296 295 294 293 292 292
284 284 285 285 285 286 286 286 287 287 288 288 289 291 291 294 295 298 301 299 294 293 288 289 286 285 285 285 285 284 283 285 284 285 287 288 289 290 290 290 289 288 288
284 284 284 285 285 285 286 286 287 287 288 288 288 289 290 290 291 296 296 293 292 292 290 289 283 282 281 281 281 284 280 277 277 283 282 282 284 284 285 287 286 286 286
284 284 283 284 285 285 288 289 288 287 287 287 288 289 289 288 291 294 295 295 296 291 288 286 283 282 281 283 281 279 278 278 276 279 279 275 279 279 279 281 286 285 284
284 283 283 284 284 286 291 290 290 287 287 288 288 288 286 286 288 289 292 292 290 293 292 288 284 284 281 282 281 279 280 281 275 276 278 273 275 276 277 279 284 284 283
283 283 283 284 284 285 288 288 286 285 284 285 285 286 285 285 287 286 284 283 283 284 285 286 286 284 284 283 282 281 279 273 274 274 277 272 272 274 275 275 280 282 281
283 283 283 284 283 284 286 286 284 283 283 283 284 285 285 284 286 286 283 281 281 282 286 286 286 286 285 284 279 277 275 275 272 272 273 273 271 272 272 273 274 279 281
283 283 282 283 284 284 286 285 284 282 281 281 283 284 285 285 286 285 282 281 279 280 282 282 283 284 282 282 283 281 280 278 272 272 273 272 270 271 270 270 271 272 274
Wind_Speed
5 5 4 3 3 4 6 8 7 10 14 16 16 16 15 15 16 10 9 17 18 25 28 28 28 27 26 25 25 24 24 24 22 21 20 18 18 16 17 15 14 13 12
7 6 6 4 4 3 5 6 10 10 10 12 16 17 17 15 16 13 11 12 21 22 28 29 30 28 27 26 26 26 25 24 23 22 21 21 18 17 17 16 15 14 13
10 10 8 7 6 6 7 4 8 12 11 11 15 16 14 17 14 16 12 12 16 17 22 27 28 29 29 28 26 26 26 26 24 23 23 21 21 20 18 16 16 15 14
13 12 10 9 8 6 7 6 6 8 11 13 12 13 13 14 17 17 13 12 12 13 14 27 29 29 30 31 28 27 27 26 25 25 24 23 23 20 20 20 18 17 16
14 13 12 11 11 9 9 8 7 6 9 9 14 13 13 13 16 14 17 15 15 14 11 18 26 28 29 30 31 30 28 28 27 26 25 25 23 23 22 22 21 20 19
13 12 12 13 12 10 10 10 11 8 9 10 9 14 14 14 13 14 17 13 15 17 15 14 14 15 26 29 30 32 32 31 30 29 27 26 25 24 23 22 22 22 20
13 13 11 12 12 13 14 14 12 12 9 7 7 12 9 13 16 14 13 15 14 17 15 15 14 12 14 29 31 32 34 34 33 32 32 30 28 26 25 24 23 22 21
13 12 12 12 13 12 15 15 15 11 10 7 7 9 4 3 5 14 13 14 18 13 17 16 12 17 16 15 21 32 33 35 35 33 33 32 30 29 28 26 24 23 22
13 14 14 13 13 12 12 14 15 18 13 10 15 8 4 7 5 1 7 8 17 14 13 17 18 15 17 17 20 26 32 34 35 35 34 34 33 31 30 28 27 25 23
14 14 15 15 15 12 14 13 13 15 14 14 8 13 17 3 4 1 2 5 4 10 17 12 15 17 17 15 20 24 28 32 33 35 34 33 34 33 31 29 27 25 23
14 14 15 15 15 12 14 16 16 16 14 14 13 10 13 14 14 9 6 9 2 6 7 13 13 12 17 17 16 20 28 30 29 31 33 33 32 33 32 31 29 26 24
11 14 14 14 15 15 15 14 15 18 16 15 14 13 13 11 13 11 13 14 18 10 10 6 11 11 11 13 16 22 28 32 30 26 30 32 32 32 33 32 30 29 27
10 13 14 14 13 15 16 14 14 17 16 13 18 14 13 14 8 11 11 4 9 4 4 8 9 10 9 8 9 17 26 31 30 26 30 33 33 33 31 33 31 29 26
11 13 14 15 17 16 15 16 12 13 16 15 18 12 15 14 12 13 6 6 1 1 2 4 9 9 9 10 10 5 12 30 32 30 32 30 33 33 31 31 30 28 26
12 14 15 17 17 17 17 16 13 14 16 15 17 16 14 11 11 10 13 6 8 8 12 6 4 9 9 8 11 10 7 15 29 36 37 37 34 31 30 30 28 27 25
16 16 16 17 16 18 17 16 16 14 15 10 12 18 16 12 13 10 10 11 7 9 10 9 5 2 5 2 7 11 10 11 21 26 28 31 32 34 31 30 27 25 23
16 18 17 16 17 19 16 15 17 16 16 15 14 13 14 16 11 11 10 11 10 8 3 1 2 2 4 6 3 2 4 7 10 24 28 31 29 28 28 28 27 24 22
15 16 18 16 15 17 15 16 17 13 17 16 9 13 16 13 13 13 11 13 12 9 5 4 2 2 2 2 4 5 3 3 3 10 22 26 25 25 26 26 24 21 20
14 14 16 15 14 15 15 15 15 13 13 12 11 13 10 12 13 14 14 11 9 3 4 5 4 3 2 5 6 5 6 8 7 15 19 18 22 24 23 21 20 17 15
14 14 14 13 12 13 13 13 13 12 11 9 7 9 8 9 14 11 11 9 8 8 4 5 5 4 3 4 5 9 7 5 8 9 14 14 16 18 18 18 17 14 14
12 13 13 12 11 9 9 12 12 12 12 11 11 9 9 9 12 15 8 10 11 7 8 8 5 4 5 8 10 6 8 7 7 4 9 6 7 6 7 12 11 14 13
13 13 12 12 11 6 14 19 13 9 9 12 9 9 8 7 14 19 16 17 18 14 11 8 5 10 10 11 7 10 12 11 6 3 7 4 3 4 4 4 11 14 12
12 12 13 12 12 11 11 17 19 6 6 8 8 6 3 3 5 6 12 14 10 8 10 8 13 10 12 12 14 13 12 10 4 4 9 4 3 3 3 3 12 12 13
12 12 13 12 10 10 18 18 16 8 7 7 7 6 6 7 7 11 12 12 11 8 7 6 8 9 8 11 11 11 12 9 9 5 2 4 2 2 2 2 9 13 12
11 11 12 12 11 11 19 18 13 9 11 11 10 9 10 10 15 18 14 15 13 11 15 21 20 21 22 22 19 14 11 11 4 2 0 4 4 3 3 4 3 9 13
10 9 12 13 14 13 20 20 14 8 11 9 11 13 19 14 18 19 14 13 15 10 13 15 14 17 16 19 21 10 11 10 6 3 5 4 5 5 4 2 3 3 3
Wind_Direction
309 313 307 299 278 338 274 223 239 232 220 220 214 206 202 205 209 217 213 189 221 201 192 190 189 188 188 185 185 182 182 176 174 171 165 168 163 164 157 159 155 153 149
282 282 279 263 257 213 255 311 259 220 231 222 218 211 206 206 204 211 222 200 211 222 193 194 191 192 190 192 188 188 185 181 178 178 179 174 167 174 166 161 160 167 166
272 271 269 257 242 234 237 255 286 254 215 217 227 211 205 203 208 203 209 225 206 221 209 195 198 191 191 193 194 194 190 184 184 182 181 175 172 175 180 174 174 175 175
275 273 266 262 256 236 234 229 221 263 258 209 210 217 208 204 201 206 204 217 217 211 210 198 197 195 193 193 193 194 192 188 184 182 180 181 182 185 187 182 179 178 179
280 272 268 267 264 256 242 238 233 217 254 262 211 209 203 205 209 201 208 209 217 212 205 204 202 196 197 195 191 193 195 193 190 189 187 186 186 192 189 188 184 181 187
280 276 272 270 268 261 251 238 238 231 237 239 295 221 208 201 205 205 203 205 211 212 205 200 206 196 198 199 196 193 194 196 192 189 190 192 192 194 192 192 189 189 185
281 277 273 272 267 259 256 245 245 238 232 225 244 269 210 210 199 209 201 202 211 209 200 212 200 195 197 199 200 198 198 195 195 193 189 191 193 195 194 197 193 193 191
278 274 269 268 267 268 263 257 246 244 243 218 222 243 262 224 272 198 203 204 203 209 208 196 203 195 191 199 205 204 202 199 196 197 194 193 193 194 194 197 197 198 194
281 279 274 268 266 263 262 257 253 244 247 232 219 218 216 225 166 215 200 214 203 205 207 205 204 199 199 198 204 208 208 204 200 196 197 196 195 196 197 194 198 197 195
274 275 273 269 265 263 259 259 254 253 245 238 224 221 239 159 225 178 269 218 229 211 205 206 203 205 200 205 204 204 206 211 203 201 195 197 197 198 199 196 197 197 194
274 265 264 269 267 264 263 258 256 252 245 245 233 227 221 234 237 244 227 204 233 224 218 210 197 209 207 205 206 205 202 210 208 203 198 194 196 199 197 197 195 193 192
283 273 269 264 262 263 262 260 260 255 247 246 240 237 233 216 222 219 237 206 203 202 207 220 208 204 207 211 208 206 202 202 204 203 201 193 194 197 198 196 192 192 191
277 271 268 262 255 260 261 259 259 255 252 255 241 234 235 235 232 221 226 207 202 159 183 215 222 206 202 208 222 211 204 200 202 197 195 194 195 194 196 195 193 190 191
277 278 271 260 258 251 252 256 250 255 251 250 249 255 239 234 232 236 223 175 283 122 176 176 203 215 205 200 206 228 217 205 200 200 197 194 192 191 191 194 189 186 187
278 275 267 264 254 250 246 249 247 249 247 246 244 245 251 226 220 228 234 224 199 193 211 197 175 209 212 209 206 205 222 214 215 202 193 195 189 181 184 189 184 182 183
285 281 275 273 266 256 242 242 245 245 252 263 244 237 243 241 231 231 243 235 210 236 222 199 202 160 194 194 223 206 216 212 211 212 196 189 186 174 176 176 178 181 177
290 286 278 270 262 262 235 237 241 241 244 247 246 259 253 237 233 225 231 228 222 207 198 37 100 117 162 183 123 337 201 216 228 199 188 180 175 163 166 165 174 176 172
291 284 282 273 263 261 242 235 239 241 242 236 251 241 245 248 253 240 224 227 213 200 138 143 135 135 90 123 89 87 11 32 125 179 168 154 150 150 160 164 168 167 168
300 297 292 281 265 255 244 235 236 232 240 242 225 235 245 245 246 240 234 213 196 159 148 140 137 109 99 149 114 88 76 70 63 108 124 125 137 149 152 154 156 160 158
312 312 305 297 273 251 234 229 233 234 225 226 234 225 230 240 245 250 217 190 168 163 131 127 87 119 121 131 135 127 96 89 95 86 80 100 114 133 141 146 145 150 145
323 317 318 322 301 251 233 225 222 227 235 233 229 234 234 238 250 259 185 174 159 157 145 147 133 128 134 151 152 141 117 106 49 84 103 87 112 122 132 135 145 149 152
337 329 334 337 329 304 237 224 213 220 229 240 243 250 250 237 251 245 219 188 178 160 158 147 151 165 167 152 144 136 136 140 123 324 106 77 70 90 84 102 154 156 169
338 341 343 342 341 335 349 221 221 211 226 230 231 222 192 208 169 122 101 93 82 117 153 150 153 161 157 159 142 147 153 154 101 118 121 89 39 105 95 126 164 177 195
350 351 349 352 358 7 43 69 85 85 81 74 78 85 97 77 101 114 102 87 75 64 78 99 131 135 138 144 136 138 117 97 88 66 75 118 130 120 132 163 222 210 206
357 357 360 4 15 28 46 60 69 72 74 69 68 71 87 94 106 108 99 97 82 74 86 92 100 109 120 124 123 117 122 122 99 128 47 112 150 115 176 205 203 233 212
360 5 11 14 22 34 45 57 60 67 68 65 63 65 71 88 92 95 94 97 90 87 95 95 96 102 110 125 123 125 145 143 126 138 202 125 139 152 171 170 193 201 198